• En Colombia
  • Lista de países
  • Para 7 días
  • Temperatura del agua
  • El tiempo en el mapa
  • Informadores
  • user-avatar
    Iniciar sesión

    Tiempo cada hora Biskira

    Hoy, 14 Diciembre, Sábado

    Tiempo Temperatura Precipitaciones Viento Presión Humedad
    00:00 +15°C° 0 mm 7 mps 751 mmHg 67%
    01:00 +14°C° 0 mm 7 mps 751 mmHg 67%
    02:00 +14°C° 0 mm 6 mps 751 mmHg 68%
    03:00 +14°C° 0 mm 6 mps 751 mmHg 69%
    04:00 +13°C° 0 mm 6 mps 751 mmHg 69%
    05:00 +13°C° 0 mm 6 mps 752 mmHg 69%
    06:00 +13°C° 0 mm 6 mps 753 mmHg 67%
    07:00 +14°C° 0 mm 6 mps 753 mmHg 63%
    08:00 +15°C° 0 mm 6 mps 753 mmHg 58%
    09:00 +17°C° 0 mm 6 mps 754 mmHg 53%
    10:00 +17°C° 0 mm 6 mps 753 mmHg 51%
    11:00 +19°C° 0 mm 5 mps 753 mmHg 49%
    12:00 +20°C° 0 mm 5 mps 753 mmHg 46%
    13:00 +21°C° 0 mm 4 mps 753 mmHg 46%
    14:00 +21°C° 0 mm 4 mps 753 mmHg 45%
    15:00 +21°C° 0 mm 3 mps 753 mmHg 44%
    16:00 +20°C° 0 mm 3 mps 754 mmHg 48%
    17:00 +19°C° 0 mm 2 mps 754 mmHg 52%
    18:00 +17°C° 0 mm 2 mps 754 mmHg 57%
    19:00 +18°C° 0 mm 1 mps 755 mmHg 57%
    20:00 +16°C° 0 mm 1 mps 755 mmHg 58%
    21:00 +16°C° 0 mm 1 mps 755 mmHg 58%
    22:00 +16°C° 0 mm 1 mps 755 mmHg 60%
    23:00 +15°C° 0 mm 1 mps 755 mmHg 62%

    Mañana, 15 Diciembre, Domingo

    Tiempo Temperatura Precipitaciones Viento Presión Humedad
    00:00 +15°C° 0 mm 1 mps 755 mmHg 64%
    01:00 +13°C° 0 mm 0 mps 755 mmHg 65%
    02:00 +13°C° 0 mm 0 mps 754 mmHg 67%
    03:00 +12°C° 0 mm 0 mps 754 mmHg 69%
    04:00 +12°C° 0 mm 0 mps 754 mmHg 69%
    05:00 +12°C° 0 mm 0 mps 754 mmHg 69%
    06:00 +13°C° 0 mm 1 mps 754 mmHg 70%
    07:00 +14°C° 0 mm 1 mps 755 mmHg 65%
    08:00 +15°C° 0 mm 1 mps 755 mmHg 61%
    09:00 +18°C° 0 mm 1 mps 756 mmHg 56%
    10:00 +18°C° 0 mm 2 mps 755 mmHg 53%
    11:00 +18°C° 0 mm 2 mps 755 mmHg 50%
    12:00 +19°C° 0 mm 2 mps 755 mmHg 47%
    13:00 +20°C° 0 mm 2 mps 754 mmHg 47%
    14:00 +20°C° 0 mm 2 mps 754 mmHg 46%
    15:00 +20°C° 0 mm 2 mps 754 mmHg 46%
    16:00 +19°C° 0 mm 2 mps 754 mmHg 50%
    17:00 +18°C° 0 mm 2 mps 754 mmHg 54%
    18:00 +17°C° 0 mm 2 mps 754 mmHg 58%
    19:00 +17°C° 0 mm 2 mps 754 mmHg 58%
    20:00 +16°C° 0 mm 2 mps 755 mmHg 59%
    21:00 +16°C° 0 mm 3 mps 755 mmHg 59%
    22:00 +16°C° 0 mm 3 mps 755 mmHg 61%
    23:00 +14°C° 0 mm 3 mps 755 mmHg 62%

    Pasado mañana, 16 Diciembre, Lunes

    Tiempo Temperatura Precipitaciones Viento Presión Humedad
    00:00 +15°C° 0 mm 2 mps 755 mmHg 64%
    01:00 +14°C° 0 mm 2 mps 755 mmHg 65%
    02:00 +14°C° 0 mm 2 mps 754 mmHg 66%
    03:00 +14°C° 0 mm 2 mps 754 mmHg 67%
    04:00 +14°C° 0 mm 2 mps 754 mmHg 68%
    05:00 +13°C° 0 mm 3 mps 754 mmHg 68%
    06:00 +12°C° 0 mm 3 mps 754 mmHg 68%
    07:00 +13°C° 0 mm 3 mps 754 mmHg 64%
    08:00 +14°C° 0 mm 4 mps 754 mmHg 60%
    09:00 +15°C° 0 mm 4 mps 754 mmHg 56%
    10:00 +16°C° 0 mm 5 mps 753 mmHg 52%
    11:00 +17°C° 0 mm 6 mps 753 mmHg 49%
    12:00 +19°C° 0 mm 6 mps 752 mmHg 46%
    13:00 +19°C° 0 mm 6 mps 752 mmHg 45%
    14:00 +19°C° 0 mm 6 mps 751 mmHg 45%
    15:00 +19°C° 0 mm 6 mps 750 mmHg 44%
    16:00 +19°C° 0 mm 6 mps 750 mmHg 47%
    17:00 +17°C° 0 mm 6 mps 750 mmHg 50%
    18:00 +16°C° 0 mm 5 mps 751 mmHg 53%
    19:00 +16°C° 0 mm 5 mps 750 mmHg 54%
    20:00 +16°C° 0 mm 5 mps 750 mmHg 54%
    21:00 +15°C° 0 mm 5 mps 750 mmHg 54%
    22:00 +15°C° 0 mm 6 mps 750 mmHg 53%
    23:00 +15°C° 0 mm 6 mps 750 mmHg 53%

    17 Diciembre, Martes

    Tiempo Temperatura Precipitaciones Viento Presión Humedad
    00:00 +15°C° 0 mm 6 mps 749 mmHg 52%
    01:00 +15°C° 0 mm 6 mps 749 mmHg 52%
    02:00 +15°C° 0 mm 6 mps 748 mmHg 51%
    03:00 +15°C° 0 mm 6 mps 748 mmHg 51%
    04:00 +15°C° 0 mm 6 mps 748 mmHg 52%
    05:00 +15°C° 0 mm 5 mps 747 mmHg 53%
    06:00 +14°C° 0 mm 5 mps 747 mmHg 53%
    07:00 +15°C° 0 mm 7 mps 747 mmHg 50%
    08:00 +16°C° 0 mm 8 mps 747 mmHg 48%
    09:00 +17°C° 0 mm 9 mps 746 mmHg 45%
    10:00 +18°C° 0 mm 10 mps 746 mmHg 42%
    11:00 +18°C° 0 mm 11 mps 745 mmHg 40%
    12:00 +19°C° 0 mm 12 mps 744 mmHg 38%
    13:00 +19°C° 0 mm 12 mps 743 mmHg 37%
    14:00 +19°C° 0 mm 12 mps 742 mmHg 37%
    15:00 +19°C° 0 mm 12 mps 741 mmHg 36%
    16:00 +19°C° 0 mm 12 mps 741 mmHg 37%
    17:00 +19°C° 0 mm 12 mps 741 mmHg 38%
    18:00 +18°C° 0 mm 11 mps 741 mmHg 39%
    19:00 +18°C° 0 mm 9 mps 741 mmHg 38%
    20:00 +17°C° 0 mm 7 mps 742 mmHg 38%
    21:00 +18°C° 0 mm 4 mps 742 mmHg 37%
    22:00 +15°C° 0 mm 6 mps 742 mmHg 44%
    23:00 +14°C° 0 mm 7 mps 742 mmHg 51%

    18 Diciembre, Miércoles

    Tiempo Temperatura Precipitaciones Viento Presión Humedad
    00:00 +11°C° 0 mm 8 mps 743 mmHg 58%
    01:00 +11°C° 0.1 mm 7 mps 743 mmHg 60%
    02:00 +11°C° 0.1 mm 7 mps 744 mmHg 61%
    03:00 +11°C° 0.1 mm 6 mps 744 mmHg 62%
    04:00 +12°C° 0.1 mm 5 mps 745 mmHg 63%
    05:00 +12°C° 0.1 mm 5 mps 745 mmHg 63%
    06:00 +12°C° 0.1 mm 4 mps 746 mmHg 63%
    07:00 +12°C° 0 mm 5 mps 746 mmHg 59%
    08:00 +13°C° 0 mm 6 mps 747 mmHg 54%
    09:00 +14°C° 0 mm 7 mps 747 mmHg 50%
    10:00 +14°C° 0 mm 7 mps 747 mmHg 47%
    11:00 +15°C° 0 mm 8 mps 747 mmHg 44%
    12:00 +16°C° 0 mm 9 mps 748 mmHg 41%
    13:00 +16°C° 0 mm 9 mps 748 mmHg 41%
    14:00 +16°C° 0 mm 9 mps 748 mmHg 41%
    15:00 +16°C° 0 mm 9 mps 748 mmHg 41%
    16:00 +16°C° 0 mm 8 mps 749 mmHg 44%
    17:00 +15°C° 0 mm 7 mps 750 mmHg 47%
    18:00 +14°C° 0 mm 6 mps 750 mmHg 50%
    19:00 +13°C° 0 mm 6 mps 751 mmHg 52%
    20:00 +13°C° 0 mm 5 mps 752 mmHg 54%
    21:00 +12°C° 0 mm 4 mps 752 mmHg 56%
    22:00 +12°C° 0 mm 4 mps 753 mmHg 57%
    23:00 +12°C° 0 mm 4 mps 753 mmHg 58%

    19 Diciembre, Jueves

    Tiempo Temperatura Precipitaciones Viento Presión Humedad
    00:00 +11°C° 0 mm 4 mps 753 mmHg 59%
    01:00 +11°C° 0 mm 4 mps 753 mmHg 60%
    02:00 +11°C° 0 mm 4 mps 753 mmHg 62%
    03:00 +10°C° 0 mm 4 mps 754 mmHg 63%
    04:00 +10°C° 0 mm 4 mps 754 mmHg 65%
    05:00 +10°C° 0 mm 3 mps 754 mmHg 66%
    06:00 +10°C° 0 mm 3 mps 754 mmHg 68%
    07:00 +11°C° 0 mm 3 mps 755 mmHg 65%
    08:00 +12°C° 0 mm 2 mps 755 mmHg 62%
    09:00 +13°C° 0 mm 2 mps 755 mmHg 59%
    10:00 +14°C° 0 mm 2 mps 755 mmHg 56%
    11:00 +15°C° 0 mm 2 mps 755 mmHg 53%
    12:00 +15°C° 0 mm 1 mps 755 mmHg 49%
    13:00 +16°C° 0 mm 1 mps 754 mmHg 47%
    14:00 +16°C° 0 mm 1 mps 754 mmHg 45%
    15:00 +18°C° 0 mm 1 mps 754 mmHg 43%
    16:00 +16°C° 0 mm 1 mps 754 mmHg 47%
    17:00 +15°C° 0 mm 1 mps 754 mmHg 52%
    18:00 +14°C° 0 mm 1 mps 754 mmHg 56%
    19:00 +13°C° 0 mm 1 mps 755 mmHg 57%
    20:00 +12°C° 0 mm 0 mps 755 mmHg 58%
    21:00 +11°C° 0 mm 0 mps 755 mmHg 59%
    22:00 +11°C° 0 mm 0 mps 755 mmHg 60%
    23:00 +11°C° 0 mm 0 mps 755 mmHg 61%
    Mostrar más